{"data":{"norad_id":57146,"intl_designator":"2023-090AX","name":"STARLINK-5791","alt_names":[],"object_type":"PAYLOAD","status":"ACTIVE","operator":null,"country":"US","launch_date":"2023-06-23","launch_site_code":"AFETR","launch_vehicle":null,"mission":null,"orbit_class":"UNKNOWN","rcs_meters":null,"size_class":null,"mass_kg":null,"dimensions":null,"purposes":["comms"],"wikipedia_slug":null,"has_3d_model":false,"image_url":null,"decayed_at":null,"tle_current":{"epoch":"2026-09-20T15:54:36.999936Z","epoch_age_seconds":106880,"freshness":"FRESH","line1":"1 57146U 23090AX  26263.66292824 -.00000013  00000+0  90527-5 0  9997","line2":"2 57146  43.0043 242.0934 0001451 283.9208  76.1482 15.27575735180178","mean_motion":15.27575735,"eccentricity":0.0001451,"inclination_deg":43.0043,"raan_deg":242.0934,"arg_perigee_deg":283.9208,"mean_anomaly_deg":76.1482,"bstar":9.0527e-6,"rev_number":18017,"period_min":94.267011906942,"perigee_km":482.06630705809,"apogee_km":484.0574269693,"semimajor_km":6861.1988670137,"source":"CELESTRAK","updated_at":"2026-09-21T09:00:33.567367Z"}}}